CW6666 Weather Reports


Display with metric or nautical units.
time (UTC)temp
F
wind
direction
speed
MPH
gust
MPH
rain 1hr
in
rain 24hr
in
rain mn
in
humidity
%
barometer
mb
20150522173553 82 43 12.0 19.0 0.00 0.02 0.00 88 1009.1
20150522173101 82 46 17.0 22.0 0.00 0.02 0.00 86 1009.1
20150522172557 82 59 18.0 22.0 0.00 0.02 0.00 85 1009.2
20150522172052 82 47 19.0 21.0 0.00 0.02 0.00 85 1009.2
20150522171552 82 57 14.0 15.0 0.00 0.02 0.00 87 1009.2
20150522170610 82 46 11.0 19.0 0.00 0.02 0.00 86 1009.2
20150522170052 82 55 15.0 19.0 0.00 0.02 0.00 84 1009.2
20150522165553 82 53 14.0 17.0 0.00 0.02 0.00 85 1009.3
20150522165052 82 49 14.0 17.0 0.00 0.02 0.00 86 1009.3
20150522164625 82 61 13.0 19.0 0.00 0.02 0.00 85 1009.3
20150522164100 82 53 15.0 20.0 0.00 0.02 0.00 84 1009.3
20150522163556 82 54 15.0 20.0 0.00 0.02 0.00 84 1009.3
20150522163052 83 67 16.0 19.0 0.00 0.02 0.00 85 1009.3
20150522162551 83 59 14.0 17.0 0.00 0.02 0.00 86 1009.4
20150522162125 83 53 14.0 18.0 0.00 0.02 0.00 84 1009.4
20150522161551 83 66 14.0 20.0 0.00 0.02 0.00 83 1009.4
20150522161050 83 64 17.0 20.0 0.00 0.02 0.00 82 1009.5
20150522160601 83 58 15.0 19.0 0.00 0.02 0.00 85 1009.5
20150522160124 83 59 13.0 18.0 0.00 0.02 0.00 85 1009.5
20150522155619 83 57 16.0 20.0 0.00 0.02 0.00 86 1009.7
20150522155050 83 42 16.0 20.0 0.00 0.02 0.00 85 1009.7
20150522154550 83 49 16.0 20.0 0.00 0.02 0.00 86 1009.7
20150522154049 83 50 17.0 20.0 0.00 0.02 0.00 84 1009.8
20150522153550 83 40 15.0 19.0 0.00 0.02 0.00 84 1009.8
20150522153049 83 40 18.0 19.0 0.00 0.02 0.00 85 1009.8
20150522152551 83 53 17.0 19.0 0.00 0.02 0.00 84 1009.8
20150522152049 83 57 18.0 20.0 0.00 0.02 0.00 84 1009.8
20150522151619 83 61 16.0 20.0 0.00 0.02 0.00 85 1009.8
20150522151049 83 58 17.0 18.0 0.00 0.02 0.00 84 1009.9
20150522150548 83 59 13.0 18.0 0.00 0.02 0.00 84 1009.9
20150522150056 83 51 15.0 18.0 0.00 0.02 0.00 84 1009.9
20150522145605 83 51 16.0 17.0 0.00 0.02 0.00 84 1010.1
20150522145049 83 58 16.0 17.0 0.00 0.02 0.00 84 1010.1
20150522144548 83 49 15.0 18.0 0.00 0.02 0.00 84 1010.1
20150522144101 83 63 14.0 18.0 0.00 0.02 0.00 83 1010.2
20150522143049 83 67 13.0 18.0 0.00 0.02 0.00 85 1010.2
20150522142108 83 67 14.0 18.0 0.00 0.02 0.00 83 1010.3
20150522141620 83 57 17.0 18.0 0.00 0.02 0.00 84 1010.3
20150522141047 83 63 15.0 18.0 0.00 0.02 0.00 83 1010.5
20150522140546 83 65 16.0 18.0 0.00 0.02 0.00 83 1010.5
20150522140050 83 63 15.0 19.0 0.00 0.02 0.00 84 1010.5
20150522135547 83 59 15.0 19.0 0.00 0.02 0.02 83 1010.7
20150522135047 83 59 13.0 19.0 0.00 0.02 0.02 84 1010.7
20150522134547 83 61 18.0 19.0 0.00 0.02 0.02 83 1010.7
20150522133554 83 51 15.0 18.0 0.00 0.02 0.02 84 1010.8
20150522133046 83 48 15.0 18.0 0.00 0.02 0.02 84 1010.8
20150522132545 83 57 17.0 19.0 0.00 0.02 0.02 83 1010.8
20150522132046 83 54 14.0 19.0 0.00 0.02 0.02 83 1010.8
20150522131545 83 52 17.0 19.0 0.00 0.02 0.02 84 1010.8
20150522131050 83 58 15.0 21.0 0.00 0.02 0.02 84 1010.8
20150522130545 83 42 17.0 21.0 0.00 0.02 0.02 83 1010.8
20150522130046 83 50 15.0 18.0 0.00 0.02 0.02 84 1010.8
20150522125545 83 46 13.0 18.0 0.00 0.02 0.02 85 1010.8
20150522125048 83 44 16.0 18.0 0.00 0.02 0.02 83 1010.8
20150522124544 83 53 16.0 18.0 0.00 0.02 0.02 83 1010.8
20150522124044 83 53 15.0 18.0 0.00 0.02 0.02 83 1010.8
20150522123544 83 61 17.0 18.0 0.00 0.02 0.02 84 1010.8
20150522123044 83 45 15.0 18.0 0.00 0.02 0.02 83 1010.8
20150522122544 83 55 14.0 18.0 0.00 0.02 0.02 83 1010.9
20150522122043 83 57 13.0 18.0 0.00 0.02 0.02 83 1010.9
20150522121543 83 55 17.0 18.0 0.00 0.02 0.02 84 1010.9
20150522121044 83 53 14.0 19.0 0.00 0.02 0.02 83 1010.9
20150522120604 83 59 14.0 19.0 0.00 0.02 0.02 83 1010.9
20150522120043 83 61 16.0 19.0 0.00 0.02 0.02 83 1010.9
20150522115543 83 69 13.0 19.0 0.00 0.02 0.02 84 1010.9
20150522114542 83 50 17.0 17.0 0.00 0.02 0.02 83 1010.9
20150522114051 83 50 15.0 18.0 0.00 0.02 0.02 84 1010.8
20150522113542 83 62 16.0 19.0 0.00 0.02 0.02 82 1010.8
20150522113042 83 64 14.0 19.0 0.00 0.02 0.02 83 1010.8
20150522112610 83 57 14.0 19.0 0.00 0.02 0.02 83 1010.8
20150522112049 83 58 18.0 19.0 0.00 0.02 0.02 83 1010.8
20150522111542 83 59 18.0 19.0 0.00 0.02 0.02 82 1010.8
20150522111042 83 52 12.0 18.0 0.00 0.02 0.02 84 1010.8
20150522110542 83 47 16.0 17.0 0.00 0.02 0.02 83 1010.8
20150522110109 83 69 14.0 18.0 0.00 0.02 0.02 84 1010.8
20150522105549 83 64 13.0 18.0 0.00 0.02 0.02 82 1010.7
20150522105045 83 65 15.0 19.0 0.00 0.02 0.02 83 1010.7
20150522104541 83 61 14.0 19.0 0.00 0.02 0.02 82 1010.7
20150522104042 83 54 17.0 18.0 0.00 0.02 0.02 83 1010.5
20150522103557 83 66 15.0 19.0 0.00 0.02 0.02 83 1010.5
20150522103057 83 49 17.0 19.0 0.00 0.02 0.02 82 1010.5
20150522102604 83 62 17.0 19.0 0.00 0.02 0.02 83 1010.3
20150522102109 83 58 16.0 17.0 0.00 0.02 0.02 83 1010.3
20150522101544 83 64 14.0 18.0 0.00 0.02 0.02 82 1010.3
20150522101047 83 55 16.0 18.0 0.00 0.02 0.02 83 1010.3
20150522100053 83 69 15.0 18.0 0.00 0.02 0.02 81 1010.3
20150522095039 83 60 13.0 18.0 0.00 0.02 0.02 82 1010.3
20150522094547 83 70 15.0 19.0 0.00 0.02 0.02 81 1010.3
20150522094039 83 67 12.0 19.0 0.00 0.02 0.02 81 1010.2
20150522093538 83 52 18.0 19.0 0.00 0.02 0.02 82 1010.2
20150522093059 83 67 15.0 18.0 0.00 0.02 0.02 83 1010.2
20150522092115 83 44 17.0 20.0 0.00 0.02 0.02 82 1010.1
20150522091538 83 55 13.0 20.0 0.00 0.02 0.02 79 1010.1
20150522091041 83 61 19.0 20.0 0.00 0.02 0.02 81 1010.1
20150522090619 83 51 17.0 20.0 0.00 0.02 0.02 80 1010.1
20150522085537 83 46 16.0 19.0 0.00 0.02 0.02 80 1009.9
20150522085037 83 61 14.0 19.0 0.00 0.02 0.02 80 1009.9
20150522084537 83 47 17.0 20.0 0.00 0.02 0.02 81 1009.9
20150522084037 83 62 18.0 20.0 0.00 0.02 0.02 80 1009.8
20150522083537 83 58 18.0 18.0 0.00 0.02 0.02 82 1009.8
20150522083037 83 49 15.0 18.0 0.00 0.02 0.02 82 1009.8
20150522082536 83 38 13.0 19.0 0.00 0.02 0.02 80 1009.8
20150522082037 83 46 15.0 19.0 0.00 0.02 0.02 81 1009.8
20150522081536 83 43 16.0 20.0 0.00 0.02 0.02 79 1009.8
20150522081036 84 51 17.0 20.0 0.00 0.02 0.02 79 1009.8
20150522080536 84 53 17.0 18.0 0.00 0.02 0.02 80 1009.8
20150522080036 84 33 13.0 19.0 0.00 0.02 0.02 80 1009.8
20150522075535 84 46 16.0 19.0 0.00 0.02 0.02 83 1009.6
20150522075035 84 46 15.0 17.0 0.00 0.02 0.02 81 1009.6
20150522074536 84 51 14.0 18.0 0.00 0.02 0.02 82 1009.6
20150522074035 84 34 16.0 19.0 0.00 0.02 0.02 81 1009.4
20150522073535 84 40 14.0 19.0 0.00 0.02 0.02 81 1009.4
20150522073035 84 50 13.0 18.0 0.00 0.02 0.02 81 1009.4
20150522072537 84 43 15.0 19.0 0.00 0.02 0.02 82 1009.4
20150522072034 84 55 14.0 19.0 0.00 0.02 0.02 81 1009.4
20150522071034 84 49 16.0 19.0 0.00 0.02 0.02 81 1009.3
20150522070534 84 45 14.0 19.0 0.00 0.02 0.02 80 1009.3
20150522070034 84 52 16.0 18.0 0.00 0.02 0.02 81 1009.3
20150522065534 84 45 14.0 18.0 0.00 0.02 0.02 80 1009.4
20150522065034 85 44 17.0 18.0 0.00 0.02 0.02 80 1009.4
20150522064537 85 41 15.0 18.0 0.00 0.02 0.02 80 1009.4
20150522064036 85 49 15.0 18.0 0.00 0.02 0.02 78 1009.5
20150522063533 85 33 15.0 17.0 0.00 0.02 0.02 80 1009.5
20150522063033 85 40 14.0 17.0 0.00 0.02 0.02 79 1009.5
20150522062533 85 37 13.0 18.0 0.00 0.02 0.02 79 1009.6
20150522062032 85 41 14.0 19.0 0.00 0.02 0.02 80 1009.6
20150522061532 85 53 16.0 19.0 0.00 0.02 0.02 79 1009.6
20150522061033 85 44 14.0 18.0 0.00 0.02 0.02 80 1009.6
20150522060532 85 53 14.0 18.0 0.00 0.02 0.02 79 1009.6
20150522060033 85 45 14.0 19.0 0.00 0.02 0.02 81 1009.6
20150522055532 85 51 15.0 20.0 0.00 0.02 0.02 78 1009.7
20150522055032 85 44 14.0 20.0 0.00 0.02 0.02 79 1009.7
20150522054532 85 48 16.0 18.0 0.00 0.02 0.02 81 1009.7
20150522054031 85 53 14.0 18.0 0.00 0.02 0.02 83 1009.8
20150522053531 85 30 16.0 18.0 0.00 0.02 0.02 80 1009.8
20150522053031 85 44 12.0 18.0 0.00 0.02 0.02 82 1009.8
20150522052531 85 51 14.0 18.0 0.00 0.02 0.02 81 1009.7
20150522052032 85 37 13.0 18.0 0.00 0.02 0.02 82 1009.7
20150522051532 85 32 12.0 18.0 0.00 0.02 0.02 79 1009.7
20150522051030 85 46 13.0 18.0 0.00 0.02 0.02 81 1009.9
20150522050530 85 34 13.0 19.0 0.00 0.02 0.02 78 1009.9
20150522050030 85 41 13.0 19.0 0.00 0.02 0.02 80 1009.9
20150522045532 85 49 16.0 17.0 0.00 0.02 0.02 80 1009.9
20150522045030 85 49 14.0 18.0 0.00 0.02 0.02 79 1009.9
20150522044529 85 40 14.0 18.0 0.00 0.02 0.02 80 1009.9
20150522044030 86 62 15.0 18.0 0.00 0.02 0.02 79 1010.1
20150522043530 86 50 14.0 18.0 0.00 0.02 0.02 77 1010.1
20150522043029 86 44 16.0 17.0 0.00 0.02 0.02 79 1010.1
20150522042530 85 44 17.0 19.0 0.00 0.02 0.02 78 1010.3
20150522042029 85 38 17.0 19.0 0.00 0.02 0.02 79 1010.3
20150522041529 86 49 15.0 19.0 0.00 0.02 0.02 79 1010.3
20150522041029 86 44 15.0 19.0 0.00 0.02 0.02 80 1010.3
20150522040528 85 50 16.0 19.0 0.00 0.02 0.02 79 1010.3
20150522040028 85 53 15.0 19.0 0.00 0.02 0.02 80 1010.3
20150522035528 85 54 15.0 18.0 0.00 0.02 0.02 81 1010.4
20150522035058 85 40 14.0 18.0 0.00 0.02 0.02 81 1010.4
20150522034528 85 46 13.0 19.0 0.00 0.02 0.02 82 1010.4
20150522034028 86 46 13.0 19.0 0.00 0.02 0.02 82 1010.6
20150522033527 86 41 17.0 18.0 0.00 0.02 0.02 81 1010.6
20150522033028 85 41 18.0 19.0 0.00 0.02 0.02 83 1010.6
20150522032527 86 43 16.0 19.0 0.00 0.02 0.02 80 1010.8
20150522032027 85 49 15.0 18.0 0.00 0.02 0.02 80 1010.8
20150522031527 86 35 15.0 18.0 0.00 0.02 0.02 82 1010.8
20150522031027 85 49 14.0 18.0 0.00 0.02 0.02 81 1010.9
20150522030527 85 46 13.0 17.0 0.00 0.02 0.02 80 1010.9
20150522030058 86 49 14.0 17.0 0.00 0.02 0.02 80 1010.9
20150522025527 85 52 15.0 18.0 0.00 0.02 0.02 79 1011.2
20150522025027 85 46 15.0 18.0 0.00 0.02 0.02 78 1011.2
20150522024526 86 48 14.0 17.0 0.00 0.02 0.02 79 1011.2
20150522024056 86 55 14.0 18.0 0.00 0.02 0.02 80 1011.3
20150522023555 85 46 15.0 20.0 0.00 0.02 0.02 80 1011.3
20150522023056 86 47 16.0 20.0 0.00 0.02 0.02 80 1011.3
20150522022556 85 32 19.0 20.0 0.00 0.02 0.02 80 1011.3
20150522022055 86 31 15.0 20.0 0.00 0.02 0.02 81 1011.3
20150522021555 86 46 18.0 20.0 0.00 0.02 0.02 81 1011.3
20150522021055 85 53 13.0 19.0 0.00 0.02 0.02 82 1011.6
20150522020555 85 40 18.0 19.0 0.00 0.02 0.02 81 1011.6
20150522020054 85 39 14.0 18.0 0.00 0.02 0.02 81 1011.6
20150522015554 85 25 13.0 17.0 0.00 0.02 0.02 82 1011.7
20150522015055 86 55 14.0 17.0 0.00 0.02 0.02 80 1011.7
20150522014554 86 47 16.0 17.0 0.00 0.02 0.02 80 1011.7
20150522014054 85 49 13.0 16.0 0.00 0.02 0.02 79 1011.9
20150522013554 85 44 14.0 17.0 0.00 0.02 0.02 80 1011.9
20150522013054 86 49 12.0 17.0 0.00 0.02 0.02 81 1011.9
20150522012553 85 53 14.0 17.0 0.00 0.02 0.02 78 1011.9
20150522012053 85 48 12.0 17.0 0.00 0.02 0.02 79 1011.9
20150522011554 86 46 14.0 17.0 0.00 0.02 0.02 78 1011.9
20150522011055 85 47 12.0 16.0 0.00 0.02 0.02 78 1012.1
20150522010554 85 42 13.0 16.0 0.00 0.02 0.02 81 1012.1
20150522010053 85 47 14.0 16.0 0.00 0.02 0.02 80 1012.1
20150522005554 85 47 13.0 16.0 0.00 0.02 0.02 81 1012.4
20150522005055 85 42 12.0 16.0 0.00 0.02 0.02 79 1012.4
20150522004553 85 46 16.0 17.0 0.00 0.02 0.02 81 1012.4
20150522004054 85 41 13.0 17.0 0.00 0.02 0.02 81 1012.4
20150522003553 85 55 13.0 18.0 0.00 0.02 0.02 80 1012.4
20150522003053 85 38 13.0 18.0 0.00 0.02 0.02 81 1012.4
20150522002553 85 42 12.0 16.0 0.00 0.02 0.02 81 1012.5
20150522002054 85 44 15.0 16.0 0.00 0.02 0.02 82 1012.5
20150522001554 85 45 14.0 17.0 0.00 0.02 0.02 81 1012.5
20150522001052 84 39 12.0 17.0 0.00 0.02 0.02 84 1012.6
20150522000552 84 41 14.0 16.0 0.00 0.02 0.02 84 1012.6
20150522000051 84 49 12.0 17.0 0.00 0.02 0.02 82 1012.6
20150521235551 85 39 14.0 17.0 0.00 0.02 0.02 81 1012.6
20150521235051 85 36 16.0 16.0 0.00 0.02 0.02 81 1012.6
20150521234552 85 49 13.0 18.0 0.00 0.02 0.02 81 1012.6
20150521234052 85 44 14.0 18.0 0.00 0.02 0.02 81 1012.7
20150521233552 85 37 14.0 16.0 0.00 0.02 0.02 80 1012.7
20150521233051 85 46 12.0 16.0 0.00 0.02 0.02 79 1012.7
20150521232552 84 39 11.0 15.0 0.00 0.02 0.02 81 1012.6
20150521232052 84 38 13.0 15.0 0.00 0.02 0.02 82 1012.6
20150521231551 84 32 11.0 14.0 0.00 0.02 0.02 81 1012.6
20150521231050 84 22 9.0 16.0 0.00 0.02 0.02 81 1012.5
20150521230551 84 28 9.0 17.0 0.00 0.02 0.02 79 1012.5
20150521230049 84 49 16.0 17.0 0.00 0.02 0.02 82 1012.5
20150521225549 84 51 14.0 17.0 0.00 0.02 0.02 84 1012.6
20150521225049 84 53 14.0 17.0 0.00 0.02 0.02 82 1012.6
20150521224548 84 49 15.0 17.0 0.00 0.02 0.02 82 1012.6
20150521224049 84 44 11.0 17.0 0.00 0.02 0.02 83 1012.5
20150521223548 84 38 14.0 17.0 0.01 0.02 0.02 83 1012.5
20150521223106 84 36 13.0 17.0 0.02 0.02 0.02 81 1012.5
20150521222548 83 34 6.0 16.0 0.02 0.02 0.02 82 1012.5
20150521222048 83 40 9.0 19.0 0.02 0.02 0.02 84 1012.5
20150521221547 83 34 16.0 19.0 0.02 0.02 0.02 86 1012.5
20150521221047 83 48 15.0 17.0 0.02 0.02 0.02 84 1012.4
20150521220547 83 69 14.0 19.0 0.02 0.02 0.02 83 1012.4
20150521220047 83 48 13.0 19.0 0.02 0.02 0.02 85 1012.4
20150521215547 83 56 13.0 16.0 0.02 0.02 0.02 85 1012.4
20150521215047 82 67 12.0 14.0 0.02 0.02 0.02 87 1012.4
20150521214547 82 71 9.0 12.0 0.02 0.02 0.02 88 1012.4
20150521214047 81 40 9.0 19.0 0.02 0.02 0.02 89 1012.2
20150521213546 81 63 12.0 19.0 0.01 0.01 0.01 87 1012.2
20150521213046 82 75 14.0 19.0 0.00 0.00 0.00 84 1012.2
20150521212546 83 47 13.0 18.0 0.00 0.00 0.00 85 1011.9
20150521212046 83 38 16.0 18.0 0.00 0.00 0.00 84 1011.9
20150521211546 83 33 15.0 17.0 0.00 0.00 0.00 85 1011.9
20150521211046 83 47 13.0 17.0 0.00 0.00 0.00 85 1011.8
20150521210546 83 59 13.0 16.0 0.00 0.00 0.00 84 1011.8
20150521210045 83 51 11.0 17.0 0.00 0.00 0.00 84 1011.8
20150521205545 83 57 12.0 17.0 0.00 0.00 0.00 85 1011.5
20150521205045 83 59 16.0 16.0 0.00 0.00 0.00 84 1011.5
20150521204545 83 61 13.0 16.0 0.00 0.00 0.00 85 1011.5
20150521204045 83 45 12.0 15.0 0.00 0.00 0.00 85 1011.4
20150521203545 83 57 14.0 15.0 0.00 0.00 0.00 86 1011.4
20150521203044 83 59 11.0 14.0 0.00 0.00 0.00 85 1011.4
20150521202544 83 57 12.0 15.0 0.00 0.00 0.00 85 1011.3
20150521202044 82 56 12.0 16.0 0.00 0.00 0.00 84 1011.3
20150521201544 82 47 12.0 16.0 0.00 0.00 0.00 84 1011.3
20150521201044 82 58 12.0 15.0 0.00 0.00 0.00 85 1011.2
20150521200544 82 59 13.0 15.0 0.00 0.00 0.00 84 1011.2
20150521200043 82 58 14.0 16.0 0.00 0.00 0.00 85 1011.2
20150521195543 82 53 13.0 17.0 0.00 0.00 0.00 84 1010.9
20150521195043 82 53 13.0 17.0 0.00 0.00 0.00 84 1010.9
20150521194543 82 56 12.0 16.0 0.00 0.00 0.00 84 1010.9
20150521194043 82 56 11.0 16.0 0.00 0.00 0.00 84 1010.9
20150521193543 82 57 13.0 16.0 0.00 0.00 0.00 84 1010.9
20150521193043 82 61 13.0 15.0 0.00 0.00 0.00 83 1010.9
20150521192543 82 54 13.0 15.0 0.00 0.00 0.00 83 1010.8
20150521192042 82 66 12.0 15.0 0.00 0.00 0.00 85 1010.8
20150521191542 82 70 12.0 16.0 0.00 0.00 0.00 85 1010.8
20150521191042 82 46 15.0 16.0 0.00 0.00 0.00 84 1010.8
20150521190542 83 52 13.0 16.0 0.00 0.00 0.00 86 1010.8
20150521190042 82 67 12.0 18.0 0.00 0.00 0.00 85 1010.8
20150521185541 82 65 14.0 18.0 0.00 0.00 0.00 84 1010.8
20150521185041 82 57 12.0 15.0 0.00 0.00 0.00 87 1010.8
20150521184542 82 49 9.0 16.0 0.00 0.00 0.00 85 1010.8
20150521184042 82 42 14.0 19.0 0.00 0.00 0.00 84 1010.8
20150521183541 82 57 13.0 19.0 0.00 0.00 0.00 85 1010.8
20150521183041 83 63 15.0 18.0 0.00 0.00 0.00 85 1010.8
20150521182540 82 54 15.0 18.0 0.00 0.00 0.00 84 1010.7
20150521182041 83 60 16.0 16.0 0.00 0.00 0.00 87 1010.7
20150521181540 83 63 12.0 14.0 0.00 0.00 0.00 85 1010.7
20150521181040 83 71 11.0 14.0 0.00 0.00 0.00 85 1010.6
20150521180540 83 68 11.0 14.0 0.00 0.00 0.00 85 1010.6
20150521180040 83 64 12.0 14.0 0.00 0.00 0.00 84 1010.6
20150521175540 83 59 13.0 15.0 0.00 0.00 0.00 85 1010.4
20150521175039 83 57 12.0 15.0 0.00 0.00 0.00 84 1010.4
20150521174539 83 66 14.0 15.0 0.00 0.00 0.00 85 1010.4
20150521174040 83 57 13.0 15.0 0.00 0.00 0.00 85 1010.4